TimeEDT,TemperatureF,Dew PointF,Humidity,Sea Level PressureIn,VisibilityMPH,Wind Direction,Wind SpeedMPH,Gust SpeedMPH,PrecipitationIn,Events,Conditions,WindDirDegrees,DateUTC
12:53 AM,75.0,70.0,84,29.91,10.0,West,4.6,-,N/A,,Clear,260,2013-08-14 04:53:00
1:53 AM,75.0,71.1,87,29.91,10.0,West,3.5,-,N/A,,Partly Cloudy,270,2013-08-14 05:53:00
2:53 AM,75.0,71.1,87,29.90,10.0,WNW,3.5,-,N/A,,Scattered Clouds,290,2013-08-14 06:53:00
3:53 AM,75.0,71.1,87,29.89,10.0,Calm,Calm,-,N/A,,Partly Cloudy,0,2013-08-14 07:53:00
4:53 AM,73.9,71.1,91,29.90,10.0,Calm,Calm,-,N/A,,Clear,0,2013-08-14 08:53:00
5:53 AM,73.9,70.0,87,29.90,10.0,Calm,Calm,-,N/A,,Clear,0,2013-08-14 09:53:00
6:53 AM,73.0,70.0,90,29.92,10.0,Calm,Calm,-,N/A,,Clear,0,2013-08-14 10:53:00
7:53 AM,73.0,69.1,87,29.94,10.0,Calm,Calm,-,N/A,,Clear,0,2013-08-14 11:53:00
8:53 AM,73.0,70.0,90,29.96,9.0,NNW,5.8,-,N/A,,Clear,330,2013-08-14 12:53:00
9:53 AM,73.9,69.1,85,29.95,9.0,Calm,Calm,-,N/A,,Mostly Cloudy,0,2013-08-14 13:53:00
10:53 AM,75.9,70.0,82,29.96,10.0,Calm,Calm,-,N/A,,Scattered Clouds,0,2013-08-14 14:53:00
11:53 AM,80.1,70.0,71,29.96,10.0,Calm,Calm,-,N/A,,Mostly Cloudy,0,2013-08-14 15:53:00
12:53 PM,82.9,68.0,60,29.95,10.0,WNW,3.5,-,N/A,,Partly Cloudy,290,2013-08-14 16:53:00
1:53 PM,82.9,70.0,65,29.94,10.0,NW,8.1,-,N/A,,Partly Cloudy,310,2013-08-14 17:53:00
2:53 PM,81.0,68.0,65,29.93,10.0,NW,6.9,-,N/A,,Clear,320,2013-08-14 18:53:00
3:53 PM,78.1,71.1,79,29.92,10.0,NNW,5.8,-,0.00,,Clear,330,2013-08-14 19:53:00
4:53 PM,79.0,70.0,74,29.92,10.0,Variable,5.8,-,0.00,,Partly Cloudy,0,2013-08-14 20:53:00
5:53 PM,78.1,69.1,74,29.92,10.0,NW,3.5,-,N/A,,Clear,310,2013-08-14 21:53:00
6:53 PM,75.9,69.1,79,29.94,10.0,NW,5.8,-,N/A,,Mostly Cloudy,320,2013-08-14 22:53:00
7:26 PM,75.2,69.8,83,29.97,10.0,ENE,4.6,-,0.00,Rain,Light Rain,60,2013-08-14 23:26:00
7:53 PM,75.0,70.0,84,29.96,8.0,Calm,Calm,-,0.04,Rain,Light Rain,0,2013-08-14 23:53:00
8:53 PM,73.9,69.1,85,29.96,10.0,South,3.5,-,0.00,,Mostly Cloudy,170,2013-08-15 00:53:00
9:51 PM,73.4,69.8,88,30.01,10.0,Variable,3.5,-,0.00,,Overcast,0,2013-08-15 01:51:00
9:53 PM,73.0,69.1,87,29.98,10.0,SSE,3.5,-,0.00,,Overcast,160,2013-08-15 01:53:00
10:06 PM,73.4,69.8,88,30.01,10.0,East,3.5,-,N/A,,Overcast,80,2013-08-15 02:06:00
10:40 PM,73.4,68.0,83,30.03,10.0,East,4.6,-,N/A,,Overcast,100,2013-08-15 02:40:00
10:53 PM,73.0,68.0,84,30.01,10.0,East,5.8,-,N/A,,Overcast,100,2013-08-15 02:53:00
11:53 PM,72.0,66.9,84,30.01,10.0,East,4.6,-,N/A,,Overcast,90,2013-08-15 03:53:00